Regional Weather Roundup
Issued by NWS Albany, NY

Home | Current Version | Previous Version | Text Only | Print | Product List | Glossary On
Versions: 1 2 3 4 5 6 7 8 9 10 11 12 13 14 15 16 17 18 19 20 21 22 23 24 25 26 27 28 29 30 31 32 33 34 35 36 37 38 39 40 41 42 43 44 45 46 47 48 49 50
000
ASUS41 KALY 051610
RWRALY

NEW YORK STATE HOURLY WEATHER ROUNDUP
NATIONAL WEATHER SERVICE ALBANY NY
1200 PM EDT SAT SEP 05 2015

NOTE: "FAIR" INDICATES FEW OR NO CLOUDS BELOW 12,000 FEET WITH NO
SIGNIFICANT WEATHER AND/OR NO OBSTRUCTIONS TO VISIBILITY.

NYZ032-033-038>043-046>054-057>066-NYZ062>081-051700-
EAST


CITY           SKY/WX    TMP DP  RH WIND       PRES   REMARKS
ALBANY         MOSUNNY   76  56  49 S7        30.27F
GLENS FALLS    SUNNY     76  58  53 S6        30.26F
POUGHKEEPSIE   SUNNY     78  47  33 S5        30.27F
NEWBURGH       SUNNY     75  52  43 E10       30.30F
MONTGOMERY     SUNNY     78  53  41 VRB5      30.28F
WHITE PLAINS   SUNNY     76  47  35 E6        30.27F
ISLIP          MOSUNNY   77  55  46 NE9       30.25F
NEW YORK CITY  MOSUNNY   73  58  59 NE14      30.27F
CENTRAL PARK   SUNNY     76  53  44 VRB5      30.30F
$$

NYZ005>009-017-018-044>046-055-056-051700-
CENTRAL


CITY           SKY/WX    TMP DP  RH WIND       PRES   REMARKS
FULTON         SUNNY     81  69  67 VRB3      30.22F
SYRACUSE       MOSUNNY   81  66  60 SE7       30.22F
ROME           SUNNY     79  65  62 SE7       30.26F
ELMIRA         CLOUDY    79  66  64 S6        30.24F
BINGHAMTON     MOSUNNY   74  61  63 SE5       30.29F
MONTICELLO     MOSUNNY   73  63  68 SE7       30.32F
$$

NYZ026>034-041>043-051700-
NORTH


CITY           SKY/WX    TMP DP  RH WIND       PRES   REMARKS
WATERTOWN      SUNNY     82  67  60 SW8       30.20F HAZE
FORT DRUM      NOT AVBL
MASSENA        SUNNY     80  65  59 N3        30.23F
SARANAC LAKE   SUNNY     77  59  53 VRB6      30.27S
PLATTSBURGH    SUNNY     75  64  68 SE9       30.24F
$$

NYZ001>004-010>016-019>021-051700-
WEST


CITY           SKY/WX    TMP DP  RH WIND       PRES   REMARKS
NIAGARA FALLS  MOSUNNY   83  68  60 VRB7      30.17F
BUFFALO        MOSUNNY   83  67  58 SW13      30.18F
DUNKIRK        SUNNY     83  69  62 S9        30.18F
JAMESTOWN      PTSUNNY   77  66  69 S6        30.24S
WELLSVILLE     CLOUDY    75  64  68 S9        30.30F
ROCHESTER      MOSUNNY   83  69  62 SW6       30.20F
PENN YAN       SUNNY     82  67  60 SW6       30.24F
$$

             KEY
       WCI = WIND CHILL INDEX
       VSB = VISIBILITY
       HX  = HEAT INDEX
$$


USA.gov is the U.S. government's official web portal to all federal, state and local government web resources and services.